Location: Fluertsh�userhof
(48.7537°N, 10.3850°E)
Time: 08:22:51
(UTC+00:00)

Cosmos 990 Rocket - Pass Details

Date: 18 September 2020
Orbit: 746 x 769 km, 74.0° (Epoch: 24 October)

Event Time Altitude Azimuth Distance (km) Brightness Sun altitude
Rises 17:57:30 0° 196° (SSW) 3,178 7.3 -6.3°
Reaches altitude 10° 17:59:51 10° 195° (SSW) 2,258 6.5 -6.7°
Maximum altitude 18:04:57 76° 110° (ESE) 776 3.9 -7.5°
Drops below altitude 10° 18:10:06 10° 26° (NNE) 2,277 6.3 -8.3°
Sets 18:12:28 0° 25° (NNE) 3,208 7.1 -8.7°
